"startDT [UTC]","vpos","CH4 [ppm]","stdev(CH4) [ppm]","CO2 [ppm]","stdev(CO2) [ppm]","H2O_reported [%]","stdev(H2O_reported)","CavityPressure [torr]","CavityTemp [C]","OutletValve","CH4_dry [ppm]","CO2_dry [ppm]","DasTemp [C]","EtalonTemp [C]","WarmBoxTemp [C]","MPVPosition","T_ECpre [C]","T_EC1 [C]","T_EC2 [C]","p_inlet [hPa]","p_in [hPa]","p_out [hPa]","T_inlet [C]","RH_inlet [%]","dwpt_inlet [C]","T_vent [C]","RH_vent [%]","dwpt_vent [C]","flow_vent [l min-1]","flow_inlet [l min-1]","dwpt_sample [C]","T_room [C]"
2015-10-25 00:00:00,3.0,1.87998,0.01422,398.056,0.667,0.0443,0.0672,139.988,45.000,31440.98333,1.88249,398.319,34.020,45.069,45.000,0.00,0.09,-272.75,-272.82,-4,497,-940,19.5,7.4,-16.5,19.9,7.4,-16.2,5.73,1.81,-13.0,26.3
2015-10-25 00:01:00,3.0,1.87704,0.00037,397.050,0.039,0.0108,0.0018,139.999,45.000,31433.74009,1.87720,397.102,34.044,45.069,45.000,0.00,0.09,-272.75,-272.81,-4,497,-940,19.5,7.5,-16.4,19.9,7.5,-16.2,5.73,1.97,-13.0,26.3
2015-10-25 00:02:00,3.0,1.87679,0.00029,397.250,0.103,0.0111,0.0020,139.996,45.000,31431.53188,1.87700,397.298,34.047,45.069,45.000,0.00,0.09,-272.74,-272.81,-5,497,-940,19.5,7.4,-16.5,19.9,7.5,-16.2,5.73,1.96,-13.0,26.3
2015-10-25 00:03:00,3.0,1.87677,0.00029,397.498,0.058,0.0097,0.0019,139.998,45.000,31431.80840,1.87694,397.541,34.004,45.069,45.000,0.00,0.09,-272.75,-272.81,-4,497,-940,19.6,7.4,-16.5,19.9,7.4,-16.2,5.73,1.87,-13.0,26.3
2015-10-25 00:04:00,3.0,1.87676,0.00036,397.544,0.026,0.0091,0.0023,139.999,45.000,31431.05533,1.87693,397.589,34.009,45.069,45.000,0.00,0.09,-272.76,-272.82,-6,497,-940,19.6,7.4,-16.5,19.9,7.4,-16.2,5.73,2.04,-13.0,26.3
2015-10-25 00:05:00,3.0,1.87682,0.00031,397.559,0.036,0.0079,0.0022,140.001,45.000,31429.62516,1.87697,397.596,34.003,45.069,45.000,0.00,0.09,-272.75,-272.80,-4,497,-940,19.6,7.4,-16.6,19.9,7.4,-16.3,5.73,1.80,-13.0,26.3
2015-10-25 00:06:00,3.0,1.87697,0.00034,397.562,0.032,0.0050,0.0015,139.998,45.000,31429.90307,1.87705,397.587,34.001,45.069,45.000,0.00,0.09,-272.75,-272.81,-5,498,-940,19.6,7.3,-16.6,19.9,7.4,-16.3,5.73,2.11,-13.0,26.4
2015-10-25 00:07:00,3.0,1.87706,0.00038,397.550,0.028,0.0048,0.0023,140.001,45.000,31431.49310,1.87716,397.572,33.999,45.069,45.000,0.00,0.09,-272.75,-272.82,-5,498,-940,19.7,7.4,-16.5,19.9,7.4,-16.2,5.73,1.75,-13.0,26.4
2015-10-25 00:08:00,3.0,1.87701,0.00035,397.565,0.033,0.0042,0.0025,140.001,45.000,31432.21785,1.87709,397.587,34.000,45.070,45.000,0.00,0.09,-272.75,-272.81,-4,498,-940,19.7,7.3,-16.5,20.0,7.4,-16.2,5.73,2.13,-13.0,26.4
2015-10-25 00:09:00,3.0,1.87708,0.00032,397.577,0.032,0.0033,0.0019,140.002,45.000,31432.40901,1.87715,397.593,33.995,45.070,45.000,0.00,0.09,-272.74,-272.80,-6,498,-940,19.7,7.3,-16.6,20.0,7.3,-16.3,5.73,1.74,-13.0,26.4
2015-10-25 00:10:00,3.0,1.87715,0.00029,397.578,0.023,0.0023,0.0019,140.001,45.000,31433.92821,1.87718,397.588,33.964,45.070,45.000,0.00,0.09,-272.76,-272.81,-4,499,-940,19.8,7.4,-16.4,20.0,7.4,-16.2,5.73,2.14,-13.0,26.4
2015-10-25 00:11:00,3.0,1.87682,0.00043,397.587,0.034,0.0020,0.0015,139.998,45.000,31434.63893,1.87689,397.597,33.976,45.070,45.001,0.00,0.09,-272.75,-272.81,-5,499,-940,19.8,7.4,-16.4,20.1,7.4,-16.1,5.73,1.75,-13.0,26.4
2015-10-25 00:12:00,3.0,1.87691,0.00033,397.574,0.035,0.0024,0.0024,140.000,45.000,31437.78759,1.87694,397.586,33.997,45.070,45.000,0.00,0.30,-271.12,-272.21,-5,499,-940,19.8,7.3,-16.5,20.1,7.3,-16.3,5.43,2.27,-18.4,26.4
2015-10-25 00:13:00,3.0,1.87695,0.00036,397.581,0.022,0.0011,0.0018,139.999,45.000,31437.66974,1.87696,397.587,34.000,45.069,45.000,0.00,0.09,-272.75,-272.81,-4,499,-940,19.9,7.3,-16.5,20.1,7.3,-16.2,5.73,1.79,-13.0,26.5
2015-10-25 00:14:00,3.0,1.87708,0.00033,397.589,0.042,0.0015,0.0016,140.001,45.000,31439.44978,1.87710,397.597,34.006,45.069,45.000,0.00,0.09,-272.76,-272.81,-6,499,-940,19.9,7.3,-16.4,20.1,7.3,-16.2,5.73,2.06,-13.0,26.5
2015-10-25 00:15:00,3.0,1.87699,0.00037,397.602,0.036,0.0020,0.0014,140.002,45.000,31439.75382,1.87700,397.610,34.030,45.069,45.000,0.00,0.09,-272.74,-272.81,-4,500,-940,19.9,7.3,-16.4,20.2,7.4,-16.1,5.73,1.85,-13.0,26.5
2015-10-25 00:16:00,3.0,1.87719,0.00037,397.622,0.031,0.0011,0.0016,140.000,45.000,31440.42041,1.87726,397.628,34.037,45.069,45.000,0.00,0.09,-272.75,-272.81,-6,500,-940,20.0,7.3,-16.4,20.2,7.3,-16.1,5.73,2.00,-13.0,26.5
2015-10-25 00:17:00,3.0,1.87699,0.00039,397.595,0.034,0.0015,0.0022,139.999,45.000,31441.66324,1.87701,397.602,34.023,45.069,45.000,0.00,0.09,-272.75,-272.82,-5,500,-939,20.0,7.3,-16.3,20.3,7.4,-16.1,5.73,1.91,-13.0,26.5
2015-10-25 00:18:00,3.0,1.87673,0.00029,397.593,0.029,0.0012,0.0017,139.999,45.000,31445.64229,1.87674,397.598,34.045,45.069,45.000,0.00,0.09,-272.75,-272.81,-5,500,-940,20.1,7.2,-16.4,20.3,7.3,-16.1,5.73,1.95,-13.0,26.6
2015-10-25 00:19:00,3.0,1.87699,0.00031,397.596,0.033,0.0013,0.0019,139.999,45.000,31447.01298,1.87702,397.602,34.060,45.069,45.000,0.00,0.09,-272.74,-272.81,-6,501,-940,20.1,7.2,-16.5,20.3,7.2,-16.3,5.73,1.95,-13.0,26.6
2015-10-25 00:20:00,0.0,1.91883,0.01471,398.637,0.392,0.1749,0.0712,140.010,45.000,31564.70498,1.92049,399.438,34.059,45.069,45.000,0.00,0.09,-272.76,-272.81,-6,517,-939,20.2,7.2,-16.5,20.3,7.2,-16.2,5.73,1.94,-12.9,26.6
2015-10-25 00:21:00,0.0,1.92387,0.00060,398.635,0.031,0.2151,0.0018,139.999,45.000,31579.98317,1.92797,399.671,34.060,45.069,45.000,0.00,0.09,-272.76,-272.81,-7,518,-939,20.2,7.1,-16.5,20.4,7.2,-16.2,5.73,2.14,-13.0,26.6
2015-10-25 00:22:00,0.0,1.92364,0.00073,398.646,0.031,0.2171,0.0023,139.999,45.000,31584.96491,1.92779,399.693,34.063,45.069,45.000,0.00,0.09,-272.74,-272.81,-7,519,-939,20.2,7.1,-16.5,20.4,7.2,-16.2,5.73,1.77,-12.9,26.7
2015-10-25 00:23:00,0.0,1.92447,0.00059,398.656,0.027,0.2179,0.0019,139.999,45.000,31587.20279,1.92856,399.706,34.063,45.069,45.000,0.00,0.09,-272.75,-272.81,-6,519,-939,20.3,7.1,-16.5,20.4,7.2,-16.2,5.73,2.08,-12.9,26.7
2015-10-25 00:24:00,0.0,1.92416,0.00072,398.643,0.027,0.2178,0.0024,139.999,45.000,31592.74332,1.92834,399.695,34.065,45.069,45.000,0.00,0.09,-272.75,-272.81,-7,519,-939,20.3,7.1,-16.5,20.5,7.2,-16.2,5.73,1.97,-12.9,26.7
2015-10-25 00:25:00,0.0,1.92387,0.00069,398.641,0.025,0.2173,0.0015,139.999,45.000,31595.80558,1.92804,399.688,34.066,45.069,45.000,0.00,0.09,-272.75,-272.80,-7,519,-939,20.3,7.1,-16.5,20.5,7.2,-16.2,5.73,1.83,-12.9,26.7
2015-10-25 00:26:00,0.0,1.92369,0.00085,398.635,0.028,0.2163,0.0024,140.000,45.000,31600.50485,1.92781,399.678,34.077,45.069,45.000,0.00,0.09,-272.75,-272.80,-6,519,-939,20.3,7.0,-16.6,20.5,7.2,-16.3,5.73,2.15,-12.9,26.7
2015-10-25 00:27:00,0.0,1.92383,0.00060,398.658,0.039,0.2159,0.0023,140.002,45.000,31602.94667,1.92788,399.696,34.079,45.069,45.000,0.00,0.09,-272.75,-272.81,-7,520,-939,20.3,7.0,-16.6,20.5,7.1,-16.4,5.73,1.77,-12.9,26.7
2015-10-25 00:28:00,0.0,1.92373,0.00083,398.666,0.033,0.2159,0.0033,139.999,45.000,31605.05776,1.92786,399.707,34.064,45.069,45.000,0.00,0.09,-272.75,-272.81,-7,520,-939,20.3,7.0,-16.6,20.5,7.1,-16.3,5.73,2.06,-12.9,26.7
2015-10-25 00:29:00,0.0,1.92422,0.00085,398.669,0.027,0.2159,0.0022,139.995,45.000,31602.51407,1.92830,399.710,34.063,45.069,45.000,0.00,0.09,-272.74,-272.81,-6,520,-939,20.3,7.0,-16.6,20.5,7.1,-16.4,5.73,1.97,-12.9,26.7
2015-10-25 00:30:00,0.0,1.92392,0.00081,398.697,0.027,0.2163,0.0031,140.000,45.000,31604.24304,1.92803,399.739,34.072,45.069,45.000,0.00,0.09,-272.75,-272.81,-7,520,-939,20.3,7.0,-16.6,20.5,7.1,-16.3,5.73,1.83,-12.9,26.7
2015-10-25 00:31:00,0.0,1.92442,0.00075,398.722,0.030,0.2186,0.0023,140.000,45.000,31606.79147,1.92864,399.775,34.071,45.069,45.000,0.00,0.09,-272.75,-272.81,-7,520,-939,20.3,7.1,-16.5,20.5,7.1,-16.3,5.73,2.15,-12.9,26.7
2015-10-25 00:32:00,0.0,1.92476,0.00099,398.742,0.035,0.2182,0.0017,140.001,45.000,31608.75625,1.92889,399.794,34.064,45.069,45.000,0.00,0.09,-272.74,-272.80,-6,520,-939,20.3,7.1,-16.5,20.5,7.1,-16.3,5.73,1.77,-12.9,26.7
2015-10-25 00:33:00,0.0,1.92494,0.00061,398.757,0.040,0.2175,0.0022,140.001,45.000,31610.38130,1.92903,399.805,34.070,45.069,45.000,0.00,0.09,-272.75,-272.80,-7,520,-939,20.3,7.1,-16.5,20.5,7.1,-16.2,5.73,2.07,-12.9,26.7
2015-10-25 00:34:00,0.0,1.92455,0.00066,398.772,0.026,0.2182,0.0022,140.001,45.000,31612.37615,1.92874,399.824,34.069,45.069,45.000,0.00,0.09,-272.75,-272.81,-7,521,-939,20.3,7.1,-16.5,20.5,7.2,-16.2,5.73,1.96,-12.9,26.7
2015-10-25 00:35:00,0.0,1.92457,0.00053,398.784,0.037,0.2167,0.0024,140.000,45.000,31612.58718,1.92870,399.827,34.071,45.069,45.000,0.00,0.09,-272.75,-272.80,-6,520,-939,20.3,7.0,-16.6,20.5,7.1,-16.3,5.73,1.85,-12.9,26.7
2015-10-25 00:36:00,0.0,1.92478,0.00082,398.788,0.029,0.2161,0.0035,140.000,45.000,31613.61598,1.92888,399.830,34.062,45.069,45.000,0.00,0.09,-272.75,-272.80,-8,520,-939,20.3,7.0,-16.7,20.5,7.0,-16.4,5.73,2.14,-12.9,26.7
2015-10-25 00:37:00,0.0,1.92412,0.00065,398.791,0.029,0.2154,0.0028,140.000,45.000,31612.89129,1.92825,399.830,34.062,45.069,45.000,0.00,0.09,-272.75,-272.81,-6,521,-939,20.3,7.0,-16.7,20.5,7.1,-16.4,5.73,1.75,-12.9,26.7
2015-10-25 00:38:00,0.0,1.92565,0.00058,398.826,0.025,0.2201,0.0035,140.000,45.000,31612.98035,1.92979,399.886,34.063,45.069,45.000,0.00,0.09,-272.76,-272.80,-6,521,-939,20.3,7.1,-16.5,20.5,7.1,-16.3,5.73,2.11,-12.9,26.7
2015-10-25 00:39:00,0.0,1.92567,0.00104,398.837,0.039,0.2221,0.0023,140.003,45.000,31614.46697,1.92995,399.908,34.067,45.069,45.000,0.00,0.09,-272.74,-272.80,-8,521,-939,20.3,7.2,-16.3,20.5,7.2,-16.1,5.73,1.91,-12.9,26.7
2015-10-25 00:40:00,0.0,1.92506,0.00082,398.859,0.037,0.2197,0.0016,139.996,45.000,31612.51999,1.92922,399.918,34.069,45.069,45.000,0.00,0.09,-272.75,-272.80,-6,521,-939,20.3,7.2,-16.4,20.5,7.2,-16.2,5.73,1.89,-12.9,26.8
2015-10-25 00:41:00,0.0,1.92539,0.00082,398.874,0.032,0.2216,0.0016,139.999,45.000,31613.21712,1.92964,399.944,34.065,45.069,45.000,0.00,0.08,-272.75,-272.81,-6,521,-939,20.2,7.2,-16.4,20.5,7.2,-16.1,5.73,2.12,-12.9,26.7
2015-10-25 00:42:00,0.0,1.92497,0.00060,398.896,0.029,0.2208,0.0021,140.001,45.000,31613.99095,1.92918,399.960,34.063,45.069,45.000,0.00,0.09,-272.74,-272.81,-8,521,-939,20.2,7.2,-16.4,20.5,7.2,-16.2,5.73,1.75,-12.9,26.7
2015-10-25 00:43:00,0.0,1.92452,0.00056,398.874,0.035,0.2188,0.0030,140.000,45.000,31613.08930,1.92865,399.929,34.066,45.069,45.000,0.00,0.09,-272.75,-272.80,-6,521,-939,20.2,7.1,-16.5,20.5,7.2,-16.2,5.73,2.14,-12.9,26.7
2015-10-25 00:44:00,0.0,1.92563,0.00037,398.895,0.023,0.2217,0.0014,140.003,45.000,31616.16135,1.92979,399.964,34.070,45.069,45.000,0.00,0.09,-272.75,-272.82,-7,520,-939,20.2,7.2,-16.4,20.5,7.2,-16.2,5.73,1.85,-12.9,26.7
2015-10-25 00:45:00,0.0,1.92485,0.00075,398.918,0.025,0.2224,0.0025,139.998,45.000,31613.91917,1.92909,399.990,34.087,45.069,45.000,0.00,0.09,-272.75,-272.81,-7,521,-939,20.2,7.2,-16.4,20.5,7.2,-16.1,5.73,1.95,-12.9,26.7
2015-10-25 00:46:00,0.0,1.92575,0.00049,398.930,0.029,0.2234,0.0016,139.998,45.000,31615.79103,1.93004,400.008,34.118,45.069,45.000,0.00,0.09,-272.74,-272.81,-6,521,-939,20.2,7.3,-16.3,20.5,7.3,-16.1,5.73,2.07,-12.9,26.7
2015-10-25 00:47:00,0.0,1.92506,0.00050,398.906,0.031,0.2225,0.0021,140.000,45.000,31617.81425,1.92929,399.979,34.089,45.069,45.000,0.00,0.09,-272.75,-272.81,-7,521,-939,20.2,7.2,-16.3,20.5,7.2,-16.1,5.73,1.78,-12.9,26.7
2015-10-25 00:48:00,0.0,1.92527,0.00068,398.952,0.039,0.2245,0.0018,140.000,45.000,31619.73270,1.92954,400.033,34.101,45.069,45.000,0.00,0.09,-272.76,-272.81,-7,521,-939,20.1,7.3,-16.2,20.5,7.3,-16.0,5.73,2.16,-12.9,26.7
2015-10-25 00:49:00,0.0,1.92517,0.00087,398.986,0.040,0.2241,0.0017,139.999,45.000,31617.30663,1.92944,400.069,34.100,45.069,45.000,0.00,0.09,-272.74,-272.80,-6,521,-939,20.1,7.3,-16.3,20.4,7.3,-16.0,5.73,1.80,-12.9,26.7
2015-10-25 00:50:00,0.0,1.92658,0.00062,399.012,0.023,0.2261,0.0022,139.998,45.000,31616.08813,1.93081,400.102,34.097,45.069,45.000,0.00,0.09,-272.76,-272.80,-7,521,-939,20.1,7.4,-16.2,20.4,7.3,-16.0,5.73,2.02,-12.9,26.7
2015-10-25 00:51:00,0.0,1.92675,0.00088,399.018,0.026,0.2261,0.0016,140.001,45.000,31614.78763,1.93111,400.109,34.124,45.069,45.000,0.00,0.09,-272.75,-272.81,-7,521,-939,20.1,7.4,-16.1,20.4,7.4,-15.9,5.73,2.01,-12.9,26.7
2015-10-25 00:52:00,0.0,1.92562,0.00059,399.018,0.029,0.2242,0.0028,140.000,45.000,31615.48290,1.92992,400.100,34.123,45.069,45.000,0.00,0.09,-272.74,-272.80,-6,521,-939,20.1,7.3,-16.3,20.4,7.3,-16.0,5.73,1.81,-12.9,26.7
2015-10-25 00:53:00,0.0,1.92670,0.00072,399.036,0.019,0.2257,0.0018,139.999,45.000,31613.94067,1.93098,400.125,34.124,45.069,45.000,0.00,0.09,-272.75,-272.81,-8,520,-939,20.1,7.3,-16.3,20.4,7.3,-16.1,5.73,2.16,-12.9,26.7
2015-10-25 00:54:00,0.0,1.92590,0.00063,399.035,0.027,0.2243,0.0023,140.000,45.000,31616.07849,1.93020,400.117,34.123,45.069,45.000,0.00,0.09,-272.75,-272.81,-7,521,-939,20.1,7.3,-16.3,20.4,7.3,-16.0,5.73,1.77,-12.9,26.7
2015-10-25 00:55:00,0.0,1.92586,0.00074,399.039,0.039,0.2237,0.0020,139.997,45.000,31616.85101,1.93014,400.119,34.125,45.069,45.000,0.00,0.09,-272.75,-272.80,-6,521,-939,20.0,7.3,-16.3,20.4,7.3,-16.1,5.73,2.07,-12.9,26.7
2015-10-25 00:56:00,0.0,1.92524,0.00070,399.045,0.032,0.2223,0.0028,140.001,45.000,31614.80023,1.92946,400.119,34.125,45.069,45.000,0.00,0.09,-272.74,-272.81,-7,521,-939,20.0,7.3,-16.4,20.4,7.3,-16.1,5.73,1.96,-12.8,26.7
2015-10-25 00:57:00,0.0,1.92605,0.00106,399.038,0.026,0.2232,0.0033,140.000,45.000,31615.09081,1.93031,400.115,34.125,45.069,45.000,0.00,0.09,-272.75,-272.81,-6,521,-939,20.0,7.3,-16.3,20.4,7.3,-16.1,5.73,1.85,-12.9,26.7
2015-10-25 00:58:00,0.0,1.92666,0.00079,399.069,0.042,0.2245,0.0034,139.998,45.000,31616.23357,1.93090,400.153,34.124,45.069,45.000,0.00,0.09,-272.76,-272.81,-6,521,-939,20.0,7.4,-16.2,20.4,7.3,-16.1,5.73,2.14,-12.9,26.7
2015-10-25 00:59:00,0.0,1.92605,0.00077,399.053,0.036,0.2247,0.0029,140.002,45.000,31615.70817,1.93033,400.136,34.119,45.069,45.000,0.00,0.09,-272.74,-272.81,-8,521,-939,20.0,7.4,-16.2,20.4,7.4,-16.0,5.73,1.76,-12.9,26.7
2015-10-25 01:00:00,0.0,1.92638,0.00079,399.074,0.028,0.2246,0.0024,139.999,45.000,31613.69960,1.93064,400.158,34.123,45.069,45.000,0.00,0.09,-272.75,-272.81,-6,521,-939,20.0,7.4,-16.3,20.4,7.3,-16.0,5.73,2.11,-12.8,26.7
2015-10-25 01:01:00,0.0,1.92644,0.00063,399.096,0.029,0.2262,0.0021,139.998,45.000,31612.83536,1.93078,400.188,34.121,45.069,45.000,0.00,0.09,-272.75,-272.82,-6,520,-939,20.0,7.4,-16.2,20.3,7.4,-16.0,5.73,1.90,-12.9,26.7
2015-10-25 01:02:00,0.0,1.92630,0.00073,399.101,0.030,0.2241,0.0017,140.000,45.000,31612.05924,1.93059,400.182,34.124,45.069,45.000,0.00,0.09,-272.75,-272.80,-7,521,-939,20.0,7.4,-16.3,20.3,7.4,-16.0,5.73,1.91,-12.9,26.6
2015-10-25 01:03:00,0.0,1.92614,0.00077,399.092,0.026,0.2217,0.0017,139.999,45.000,31612.82008,1.93035,400.162,34.124,45.069,45.000,0.00,0.09,-272.75,-272.80,-6,521,-939,20.0,7.3,-16.4,20.3,7.3,-16.1,5.73,2.11,-12.9,26.6
2015-10-25 01:04:00,0.0,1.92672,0.00080,399.090,0.036,0.2256,0.0022,139.999,45.000,31613.62643,1.93101,400.179,34.124,45.069,45.000,0.00,0.09,-272.75,-272.81,-7,520,-939,19.9,7.4,-16.2,20.3,7.4,-16.0,5.73,1.76,-12.9,26.6
2015-10-25 01:05:00,0.0,1.92584,0.00071,399.088,0.042,0.2236,0.0027,139.999,45.000,31612.06101,1.93006,400.167,34.124,45.069,45.000,0.00,0.09,-272.76,-272.81,-7,521,-939,20.0,7.4,-16.3,20.3,7.4,-16.0,5.73,2.14,-12.9,26.6
2015-10-25 01:06:00,0.0,1.92588,0.00073,399.077,0.033,0.2260,0.0017,140.000,45.000,31614.74674,1.93024,400.169,34.117,45.069,45.000,0.00,0.09,-272.75,-272.81,-6,520,-939,19.9,7.4,-16.2,20.3,7.4,-16.0,5.73,1.86,-12.9,26.6
2015-10-25 01:07:00,0.0,1.92628,0.00071,399.087,0.036,0.2265,0.0014,139.999,45.000,31613.48553,1.93060,400.180,34.122,45.069,45.000,0.00,0.09,-272.75,-272.80,-7,520,-939,19.9,7.5,-16.2,20.3,7.4,-15.9,5.73,1.95,-12.9,26.6
2015-10-25 01:08:00,0.0,1.92560,0.00062,399.079,0.040,0.2254,0.0019,139.998,45.000,31612.54468,1.92993,400.168,34.123,45.069,45.000,0.00,0.09,-272.75,-272.82,-7,521,-939,19.9,7.4,-16.2,20.3,7.4,-16.0,5.73,2.07,-12.9,26.6
2015-10-25 01:09:00,0.0,1.92600,0.00066,399.084,0.029,0.2259,0.0018,139.999,45.000,31613.04724,1.93029,400.174,34.123,45.069,45.000,0.00,0.09,-272.74,-272.81,-6,520,-939,19.9,7.4,-16.2,20.3,7.4,-16.0,5.73,1.78,-12.9,26.6
2015-10-25 01:10:00,0.0,1.92607,0.00069,399.099,0.036,0.2250,0.0024,140.000,45.000,31612.31615,1.93031,400.186,34.122,45.069,45.000,0.00,0.09,-272.75,-272.80,-7,520,-939,19.9,7.4,-16.2,20.3,7.4,-16.0,5.73,2.15,-12.9,26.6
2015-10-25 01:11:00,0.0,1.92611,0.00073,399.091,0.030,0.2264,0.0022,140.000,45.000,31612.48707,1.93047,400.184,34.119,45.069,45.000,0.00,0.09,-272.75,-272.82,-7,521,-939,19.9,7.5,-16.2,20.3,7.5,-15.9,5.73,1.81,-12.9,26.6
2015-10-25 01:12:00,0.0,1.92601,0.00091,399.089,0.037,0.2250,0.0016,139.998,45.000,31611.55186,1.93024,400.173,34.116,45.069,45.000,0.00,0.09,-272.75,-272.80,-6,520,-939,19.9,7.4,-16.2,20.3,7.4,-16.0,5.73,2.01,-12.9,26.6
2015-10-25 01:13:00,0.0,1.92713,0.00050,399.122,0.041,0.2285,0.0021,139.998,45.000,31612.00620,1.93147,400.225,34.118,45.069,45.000,0.00,0.09,-272.75,-272.81,-7,520,-939,19.9,7.5,-16.1,20.3,7.5,-15.9,5.73,2.03,-12.9,26.6
2015-10-25 01:14:00,0.0,1.92741,0.00057,399.110,0.031,0.2299,0.0014,139.999,45.000,31612.57039,1.93182,400.219,34.125,45.069,45.000,0.00,0.09,-272.75,-272.81,-6,520,-939,19.9,7.6,-16.0,20.3,7.5,-15.8,5.73,1.79,-12.9,26.6
2015-10-25 01:15:00,0.0,1.92746,0.00081,399.096,0.037,0.2321,0.0019,139.997,45.000,31610.98821,1.93191,400.218,34.132,45.069,45.000,0.00,0.09,-272.76,-272.81,-6,520,-939,19.9,7.6,-15.9,20.3,7.6,-15.7,5.73,2.16,-12.9,26.6
2015-10-25 01:16:00,0.0,1.92664,0.00049,399.081,0.038,0.2295,0.0017,140.001,45.000,31612.22480,1.93101,400.188,34.140,45.069,45.000,0.00,0.09,-272.74,-272.81,-7,520,-939,19.9,7.6,-16.0,20.3,7.6,-15.7,5.73,1.79,-12.8,26.6
2015-10-25 01:17:00,0.0,1.92647,0.00067,399.073,0.031,0.2309,0.0021,139.999,45.000,31612.33896,1.93088,400.189,34.158,45.069,45.000,0.00,0.09,-272.76,-272.80,-6,520,-939,19.9,7.6,-15.9,20.3,7.6,-15.7,5.73,2.05,-12.9,26.6
2015-10-25 01:18:00,0.0,1.92610,0.00045,399.059,0.024,0.2309,0.0020,140.000,45.000,31611.57188,1.93051,400.173,34.129,45.069,45.000,0.00,0.09,-272.76,-272.81,-6,520,-939,19.9,7.6,-15.9,20.3,7.6,-15.7,5.73,1.99,-12.9,26.6
2015-10-25 01:19:00,0.0,1.92592,0.00053,399.090,0.032,0.2304,0.0018,140.000,45.000,31611.17124,1.93027,400.201,34.136,45.069,45.000,0.00,0.09,-272.75,-272.80,-7,520,-939,19.8,7.6,-16.0,20.3,7.6,-15.7,5.73,1.83,-12.8,26.6
2015-10-25 01:20:00,0.0,1.92559,0.00090,399.061,0.039,0.2301,0.0014,140.000,45.000,31610.95138,1.93007,400.172,34.135,45.069,45.000,0.00,0.09,-272.76,-272.80,-6,520,-939,19.9,7.6,-16.0,20.3,7.6,-15.7,5.73,2.16,-12.9,26.6
2015-10-25 01:21:00,0.0,1.92535,0.00084,399.066,0.027,0.2285,0.0028,140.000,45.000,31611.50940,1.92967,400.170,34.126,45.069,45.000,0.00,0.09,-272.75,-272.81,-6,520,-939,19.9,7.5,-16.1,20.3,7.6,-15.8,5.73,1.76,-12.9,26.6
2015-10-25 01:22:00,0.0,1.92632,0.00068,399.078,0.031,0.2311,0.0031,139.999,45.000,31612.11965,1.93071,400.193,34.135,45.069,45.000,0.00,0.09,-272.75,-272.81,-7,520,-939,19.9,7.6,-15.9,20.3,7.6,-15.8,5.73,2.09,-12.8,26.6
2015-10-25 01:23:00,0.0,1.92516,0.00063,399.071,0.034,0.2332,0.0021,140.001,45.000,31611.91832,1.92963,400.197,34.176,45.069,45.000,0.00,0.09,-272.74,-272.81,-6,520,-939,19.9,7.7,-15.8,20.2,7.7,-15.6,5.73,1.94,-12.9,26.6
2015-10-25 01:24:00,0.0,1.92550,0.00056,399.077,0.036,0.2341,0.0019,139.998,45.000,31612.18055,1.92993,400.209,34.189,45.069,45.000,0.00,0.09,-272.75,-272.80,-7,520,-939,19.9,7.7,-15.8,20.3,7.7,-15.6,5.73,1.88,-12.8,26.6
2015-10-25 01:25:00,0.0,1.92577,0.00043,399.080,0.036,0.2351,0.0015,139.999,45.000,31611.22222,1.93024,400.214,34.190,45.069,45.000,0.00,0.09,-272.76,-272.81,-7,520,-939,19.9,7.8,-15.7,20.3,7.7,-15.5,5.73,2.13,-12.8,26.6
2015-10-25 01:26:00,0.0,1.92543,0.00061,399.057,0.037,0.2376,0.0020,139.998,45.000,31612.42815,1.92996,400.203,34.189,45.069,45.000,0.00,0.09,-272.75,-272.81,-6,520,-939,19.9,7.8,-15.7,20.2,7.8,-15.4,5.73,1.76,-12.9,26.6
2015-10-25 01:27:00,0.0,1.92585,0.00066,399.052,0.033,0.2391,0.0021,139.998,45.000,31611.30968,1.93043,400.207,34.188,45.069,45.000,0.00,0.09,-272.76,-272.80,-7,520,-939,19.9,7.9,-15.6,20.3,7.8,-15.3,5.73,2.14,-12.8,26.6
2015-10-25 01:28:00,0.0,1.92673,0.00090,399.066,0.026,0.2415,0.0018,140.000,45.000,31611.65569,1.93131,400.231,34.183,45.069,45.000,0.00,0.09,-272.75,-272.82,-7,520,-939,19.9,8.0,-15.4,20.2,7.9,-15.2,5.73,1.85,-12.8,26.6
2015-10-25 01:29:00,0.0,1.92626,0.00075,399.062,0.033,0.2434,0.0019,139.997,45.000,31610.74626,1.93092,400.238,34.185,45.069,45.000,0.00,0.09,-272.75,-272.80,-6,520,-939,19.9,8.0,-15.3,20.2,8.0,-15.1,5.73,1.96,-12.8,26.6
2015-10-25 01:30:00,0.0,1.92629,0.00071,399.038,0.042,0.2459,0.0026,140.000,45.000,31615.09223,1.93097,400.225,34.172,45.069,45.000,0.00,0.09,-272.75,-272.81,-7,520,-939,19.9,8.1,-15.2,20.3,8.0,-15.0,5.73,2.07,-12.8,26.6
2015-10-25 01:31:00,0.0,1.92454,0.00071,399.007,0.024,0.2452,0.0016,139.997,45.000,31613.50566,1.92929,400.190,34.177,45.069,45.000,0.00,0.09,-272.75,-272.80,-6,520,-939,19.9,8.1,-15.2,20.3,8.1,-15.0,5.73,1.79,-12.8,26.6
2015-10-25 01:32:00,0.0,1.92581,0.00070,399.054,0.031,0.2461,0.0027,139.998,45.000,31612.81787,1.93041,400.241,34.189,45.069,45.000,0.00,0.09,-272.76,-272.81,-6,520,-939,19.9,8.1,-15.2,20.2,8.0,-15.0,5.73,2.16,-12.8,26.6
2015-10-25 01:33:00,0.0,1.92611,0.00101,399.042,0.038,0.2481,0.0019,139.999,45.000,31611.68252,1.93088,400.241,34.193,45.069,45.000,0.00,0.09,-272.74,-272.80,-7,520,-939,19.9,8.1,-15.1,20.3,8.1,-14.9,5.73,1.79,-12.8,26.6
2015-10-25 01:34:00,0.0,1.92562,0.00064,399.018,0.027,0.2464,0.0016,139.999,45.000,31614.00409,1.93029,400.209,34.209,45.069,45.000,0.00,0.09,-272.76,-272.81,-6,520,-939,19.9,8.1,-15.2,20.3,8.1,-14.9,5.73,2.06,-12.8,26.5
2015-10-25 01:35:00,0.0,1.92662,0.00076,399.045,0.036,0.2503,0.0010,139.997,45.000,31612.93833,1.93139,400.254,34.205,45.069,45.000,0.00,0.09,-272.75,-272.82,-6,520,-939,19.9,8.2,-15.1,20.3,8.2,-14.8,5.73,1.96,-12.8,26.6
2015-10-25 01:36:00,0.0,1.92543,0.00092,399.042,0.034,0.2501,0.0021,140.000,45.000,31612.57488,1.93025,400.250,34.221,45.069,45.000,0.00,0.09,-272.74,-272.81,-7,520,-939,19.9,8.2,-15.0,20.3,8.2,-14.8,5.73,1.86,-12.8,26.6
2015-10-25 01:37:00,0.0,1.92511,0.00075,399.037,0.030,0.2514,0.0023,139.999,45.000,31614.13903,1.92988,400.251,34.226,45.069,45.000,0.00,0.09,-272.75,-272.81,-6,520,-939,19.9,8.2,-15.0,20.3,8.2,-14.8,5.73,2.13,-12.8,26.6
2015-10-25 01:38:00,0.0,1.92577,0.00099,399.054,0.035,0.2524,0.0022,139.998,45.000,31613.41048,1.93061,400.273,34.242,45.069,45.000,0.00,0.09,-272.75,-272.81,-6,520,-939,19.9,8.3,-14.9,20.3,8.2,-14.7,5.73,1.76,-12.8,26.6
2015-10-25 01:39:00,0.0,1.92523,0.00057,399.058,0.025,0.2512,0.0021,139.998,45.000,31615.17728,1.92997,400.272,34.241,45.069,45.000,0.00,0.09,-272.76,-272.80,-7,520,-939,19.9,8.3,-15.0,20.2,8.2,-14.7,5.73,2.14,-12.8,26.6
2015-10-25 01:40:00,0.0,1.92599,0.00070,399.033,0.033,0.2558,0.0023,140.000,45.000,31615.81048,1.93080,400.269,34.242,45.069,45.000,0.00,0.09,-272.74,-272.81,-6,520,-939,19.9,8.4,-14.8,20.3,8.3,-14.6,5.73,1.84,-12.8,26.6
2015-10-25 01:41:00,0.0,1.92571,0.00077,399.046,0.037,0.2597,0.0022,139.997,45.000,31614.23471,1.93075,400.299,34.249,45.069,45.000,0.00,0.09,-272.76,-272.81,-7,520,-939,19.9,8.5,-14.6,20.3,8.4,-14.5,5.73,1.98,-12.8,26.6
2015-10-25 01:42:00,0.0,1.92571,0.00065,399.051,0.039,0.2597,0.0019,139.998,45.000,31612.73520,1.93066,400.306,34.250,45.069,45.000,0.00,0.09,-272.75,-272.81,-7,520,-939,19.9,8.5,-14.6,20.3,8.5,-14.4,5.73,2.04,-12.8,26.6
2015-10-25 01:43:00,0.0,1.92560,0.00062,399.050,0.031,0.2584,0.0022,140.000,45.000,31614.20750,1.93052,400.298,34.250,45.069,45.000,0.00,0.09,-272.75,-272.81,-6,520,-939,19.9,8.5,-14.6,20.3,8.4,-14.4,5.73,1.81,-12.8,26.6
2015-10-25 01:44:00,0.0,1.92624,0.00055,399.047,0.024,0.2607,0.0017,139.998,45.000,31612.36997,1.93119,400.307,34.252,45.069,45.000,0.00,0.09,-272.75,-272.81,-7,520,-939,19.9,8.5,-14.5,20.3,8.5,-14.3,5.73,2.15,-12.8,26.6
2015-10-25 01:45:00,0.0,1.92692,0.00044,399.065,0.034,0.2616,0.0016,139.999,45.000,31612.15459,1.93186,400.329,34.251,45.069,45.000,0.00,0.09,-272.75,-272.81,-6,520,-939,19.9,8.6,-14.5,20.3,8.5,-14.3,5.73,1.76,-12.8,26.6